SCP
0 0 0 -0 -0 0 -0 0 0 0 0 0 0 0 0 0 0 0 0 0 0 0 0 0 0 0 0 0 0 0 0 0 0 0 0 0 0 0 0 0 0 0 0
0 -0 -0 -0 -0 -0 -0 0 0 0 0 0 0 0 0 0 0 0 0 0 0 0 0 0 0 0 0 0 0 0 0 0 0 0 0 0 0 0 0 0 0 0 0
0 -0 -0 -0 -0 -0 -0 -0 0 -0 0 0 0 0 0 0 0 0 0 0 -0 -0 0 0 0 0 0 0 0 0 0 0 0 0 0 0 0 0 0 0 0 0 0
0 -0 -0 -0 -0 -0 -0 -0 -0 -0 -0 0 0 0 0 0 0 0 -0 0 -0 -0 -0 0 0 0 0 0 0 0 0 0 0 0 0 0 0 0 0 0 0 0 0
-0 -0 -0 -0 -0 -0 -0 -0 -0 -0 0 -0 -0 0 0 0 0 0 0 -0 -0 -0 0 0 0 0 0 0 0 0 0 0 0 0 0 0 0 0 0 0 0 0 0
-0 -0 -0 -0 -0 -0 -0 -0 -0 -0 -0 -0 -0 -0 -0 -0 0 0 0 0 0 0 0 0 0 0 0 0 0 0 0 0 0 0 0 0 0 0 0 0 0 0 0
-0 -0 -0 -0 -0 -0 -0 -0 -0 -0 -0 -0 -0 -0 -0 -0 -0 0 0 0 0 0 0 0 0 0 0 0 0 -0 0 0 0 0 0 0 0 0 0 0 0 0 0
0 -0 -0 -0 -0 -0 -0 -0 -0 -0 -0 -0 -0 -0 -0 -0 -0 -0 -0 0 0 0 0 0 0 0 0 0 0 0 0 0 0 0 0 0 0 0 0 0 0 0 0
0 -0 -0 -0 -0 -0 -0 -0 -0 -0 -0 -0 -0 -0 -0 -0 -0 -0 -0 0 0 0 0 0 0 0 0 0 0 0 0 0 0 0 0 0 0 0 0 0 0 0 0
0 0 0 0 -0 -0 -0 -0 -0 -0 -0 -0 -0 -0 -0 -0 -0 -0 -0 -0 0 0 0 0 0 0 0 0 0 0 -0 -0 0 0 0 0 0 0 0 0 0 0 0
0 0 0 0 0 -0 -0 -0 -0 -0 -0 -0 -0 -0 -0 -0 -0 -0 -0 0 0 0 0 0 0 0 0 0 0 0 -0 0 0 0 0 0 0 0 0 0 0 0 0
0 0 0 0 0 -0 -0 -0 -0 -0 -0 -0 -0 -0 -0 -0 -0 -0 -0 0 0 0 0 0 0 0 0 0 0 0 0 0 0 0 0 0 0 0 0 0 0 0 0
0 0 0 0 0 0 0 0 0 -0 0 -0 -0 -0 -0 -0 -0 -0 -0 0 0 0 0 0 0 0 0 0 0 0 0 0 0 0 0 0 0 0 0 0 0 0 0
0 0 0 0 0 0 0 0 0 0 0 0 0 -0 0 0 0 0 0 0 0 0 0 0 0 0 0 0 0 0 0 0 0 0 0 0 0 0 0 0 0 0 0
0 0 0 0 0 0 0 0 0 0 0 0 0 0 0 0 0 0 0 0 0 0 0 0 0 0 0 0 0 0 0 0 0 0 0 0 0 0 0 0 0 0 0
0 0 0 0 0 0 0 0 0 0 0 0 0 0 0 0 0 0 0 0 0 0 0 0 0 0 0 0 0 0 0 0 0 0 0 0 0 0 0 0 0 0 0
0 0 0 0 0 -0 0 0 0 0 0 0 0 0 0 0 0 0 0 0 0 0 0 0 0 0 0 0 0 0 0 0 0 0 0 0 0 0 0 0 0 0 0
0 0 0 0 0 0 0 0 0 0 0 0 0 0 0 0 0 0 0 0 0 0 0 0 0 0 0 0 0 0 0 0 0 0 0 0 0 0 0 0 0 0 0
0 0 0 0 0 0 0 0 0 0 0 0 0 0 0 0 0 0 0 0 0 0 0 0 0 0 0 0 0 0 0 0 0 0 0 0 0 0 0 0 0 0 0
0 0 0 0 0 -0 0 0 0 0 0 0 0 0 0 0 0 0 0 0 0 0 0 0 0 0 0 0 0 0 0 0 0 0 0 0 0 0 0 0 0 0 0
0 0 0 0 0 0 0 0 0 0 0 0 0 0 0 0 0 0 0 0 0 0 0 0 0 0 0 0 0 0 0 0 0 0 0 0 0 0 0 0 0 0 0
0 0 0 0 0 0 0 0 0 0 0 0 0 0 0 0 0 0 0 0 0 0 0 0 0 0 0 0 0 0 0 0 0 0 0 0 0 0 0 0 0 0 0
0 0 0 0 0 0 0 0 0 0 0 0 0 0 0 0 0 0 0 0 0 0 0 0 0 0 0 0 0 0 0 0 0 0 0 0 0 0 0 0 0 0 0
0 0 0 0 0 0 0 0 0 0 0 0 0 0 0 0 0 0 0 0 0 0 0 0 0 0 0 0 0 0 0 0 0 0 0 0 0 0 0 0 0 0 0
0 0 0 0 0 0 0 0 0 0 0 0 0 0 0 0 0 0 0 0 0 0 0 0 0 0 0 0 0 0 0 0 0 0 0 0 0 0 0 0 0 0 0
0 0 0 0 0 0 0 0 0 0 0 0 0 0 0 0 0 0 0 0 0 0 0 0 0 0 0 0 0 0 0 0 0 0 0 0 0 0 0 0 0 0 0
Wind_Speed_500mb
27 27 27 28 29 41 43 44 53 49 55 63 74 78 74 77 93 84 56 68 56 80 62 51 58 48 40 39 48 42 38 36 33 28 26 28 29 32 31 30 30 29 29
34 32 32 31 32 33 39 44 45 52 57 58 65 75 83 83 90 85 73 65 66 73 73 65 60 58 41 46 46 46 35 32 43 27 23 20 24 37 39 39 38 37 34
44 41 39 37 32 32 41 37 43 44 54 48 54 78 84 81 87 84 90 79 78 75 74 70 65 64 57 53 50 45 41 33 40 39 22 17 24 17 23 38 40 43 43
46 43 43 40 37 33 30 31 41 48 53 64 65 74 91 98 100 93 93 93 87 69 68 73 68 66 61 55 52 48 44 46 35 45 48 38 24 19 15 19 30 34 37
48 48 47 42 37 34 33 34 38 50 59 60 66 70 83 92 92 96 98 78 99 88 75 76 74 70 62 51 46 41 41 45 45 37 27 40 41 52 51 42 33 45 43
46 47 43 41 40 38 37 39 49 52 60 64 67 72 81 89 93 101 98 93 93 85 79 87 81 73 60 59 66 56 44 54 51 44 41 37 35 37 45 57 64 62 39
42 50 53 52 48 48 45 41 52 56 58 69 72 71 84 84 91 112 105 97 89 95 93 96 87 80 73 72 62 70 66 59 52 48 45 46 48 43 59 65 60 60 62
35 52 56 54 54 53 51 49 51 55 62 75 76 73 75 74 89 104 107 103 95 96 97 95 97 102 101 87 83 81 71 62 63 64 61 52 55 60 66 66 55 64 76
36 49 58 58 56 58 60 55 53 54 56 68 79 79 75 68 77 95 112 99 93 101 104 99 98 98 96 87 81 92 87 71 72 72 73 66 65 66 67 62 57 70 50
31 41 55 60 57 57 58 59 57 56 56 59 65 68 73 69 68 76 97 99 96 101 105 105 107 106 103 106 99 99 87 84 81 76 72 71 80 75 79 78 76 89 76
24 35 44 51 54 53 56 62 65 62 61 63 64 66 69 71 70 74 85 89 95 90 95 83 92 90 87 83 82 86 82 80 83 81 77 81 86 89 106 93 93 93 73
8 27 33 42 51 58 59 64 65 67 67 64 65 68 68 70 76 81 80 88 89 105 108 100 100 99 96 97 93 93 92 89 87 77 73 80 85 87 73 87 81 90 81
1 15 27 36 42 50 57 63 69 74 69 68 68 70 74 77 82 86 89 82 86 90 87 90 110 118 122 125 120 115 109 105 95 90 89 96 87 75 79 63 60 85 77
20 12 18 26 33 42 50 57 61 66 67 69 72 76 81 83 84 81 82 87 86 80 82 86 98 110 107 112 113 112 109 103 101 101 97 100 114 124 94 73 82 87 77
27 25 27 25 25 35 42 49 53 58 64 69 73 88 88 83 79 80 80 81 84 89 85 90 93 99 103 91 90 86 95 102 102 105 106 105 103 99 85 80 83 99 91
36 37 27 26 30 36 41 47 55 58 59 67 73 70 74 81 85 80 81 80 83 82 81 83 85 84 87 96 98 98 100 103 101 99 90 87 90 93 85 90 98 115 92
49 41 38 29 29 32 40 46 51 48 58 62 63 64 66 69 71 71 69 74 77 75 78 81 79 84 80 85 95 97 97 93 91 89 85 88 85 82 91 88 80 75 71
45 49 48 46 40 31 32 38 41 50 56 60 61 61 63 64 61 61 64 61 60 61 59 62 65 74 77 76 79 77 75 72 79 83 85 95 82 79 83 79 80 71 59
45 42 44 46 52 51 44 37 39 49 53 57 57 56 58 58 58 60 58 55 53 50 54 52 52 59 58 59 62 61 77 82 80 81 82 76 75 74 72 64 55 47 50
46 43 43 43 42 42 42 40 37 34 46 45 45 46 50 55 55 51 50 48 45 46 47 42 48 54 59 60 63 66 65 66 71 72 72 68 59 59 50 47 50 43 42
50 46 40 38 40 43 37 33 29 24 29 37 34 37 38 40 43 49 54 48 42 43 46 46 52 56 56 57 60 61 58 58 63 65 61 46 46 53 53 43 35 29 26
54 48 39 42 40 35 23 13 22 24 28 32 31 37 41 42 42 39 39 40 41 43 43 41 43 42 41 40 38 30 31 38 42 42 38 44 43 43 34 31 24 16 9
46 45 38 34 31 28 15 4 5 5 11 17 26 30 37 41 39 37 35 33 32 35 36 33 35 33 31 30 23 18 18 21 32 36 41 40 35 27 23 17 9 6 13
39 42 39 31 27 25 19 11 7 9 16 23 28 32 32 34 33 28 25 26 21 20 23 22 25 26 26 24 22 24 26 31 31 33 31 25 21 16 10 7 7 14 21
34 35 30 30 24 25 18 15 8 9 18 22 26 27 24 23 25 24 20 17 27 23 18 26 29 27 26 26 22 21 25 25 22 19 15 10 9 8 6 9 17 24 28
33 26 24 19 16 18 17 15 12 16 21 27 29 28 29 29 31 33 35 31 32 34 25 22 16 23 17 22 19 15 15 15 13 12 10 7 6 7 13 18 21 22 21
Wind_Direction_500mb
205 199 198 195 197 207 213 218 217 208 209 202 193 194 189 185 184 183 183 178 187 198 194 197 195 187 189 191 197 195 197 196 191 187 204 215 224 230 233 234 236 227 233
205 201 200 200 200 203 210 217 214 217 213 213 201 198 194 194 196 189 189 190 198 200 202 199 199 198 196 198 203 202 197 200 204 198 209 218 235 242 239 242 235 232 232
205 203 203 201 202 204 209 205 213 213 213 215 211 202 195 197 197 198 194 197 208 208 209 205 204 207 207 207 211 214 216 208 218 208 214 222 238 224 234 236 230 241 245
209 203 202 203 203 203 203 202 205 204 213 206 214 202 201 202 203 199 199 202 211 211 215 211 210 212 213 211 214 222 231 229 232 232 227 229 225 224 237 227 236 242 250
211 200 202 203 202 199 201 196 200 205 209 213 213 210 208 208 204 204 205 214 215 218 220 218 217 216 215 211 217 229 241 240 234 237 245 246 252 254 249 246 252 263 261
206 200 200 199 201 198 198 198 197 202 204 208 211 216 211 208 204 207 209 213 216 226 219 214 221 220 217 224 233 236 242 246 246 241 241 238 248 258 255 258 263 263 252
200 194 195 197 198 199 198 202 198 204 205 205 210 212 209 212 214 208 208 212 219 220 216 213 214 220 227 233 246 243 240 243 246 251 247 254 262 257 269 268 271 269 260
202 199 196 199 199 200 200 202 201 202 207 205 209 209 209 212 219 212 212 214 219 222 217 217 219 224 232 245 244 235 239 247 257 263 261 259 265 269 270 266 259 257 268
209 201 194 198 202 203 206 207 203 200 204 207 206 210 213 213 214 215 217 218 220 222 219 222 221 224 232 234 240 237 242 249 257 259 263 259 266 275 269 262 251 262 232
199 200 198 197 201 207 207 210 208 205 204 203 206 208 210 213 212 214 217 217 222 220 223 229 229 231 235 235 238 241 245 251 255 257 253 250 261 272 270 266 255 256 245
206 198 199 202 200 205 207 210 209 206 207 207 207 207 209 211 213 216 217 219 220 221 222 226 227 230 232 235 237 241 247 250 255 254 250 249 263 273 277 268 261 257 246
193 197 195 198 202 205 209 212 212 211 211 211 211 212 212 212 215 218 218 220 221 223 224 230 230 232 236 238 240 244 247 250 251 248 247 263 271 274 271 270 267 252 244
265 179 190 202 208 211 211 213 217 218 215 212 215 217 218 218 222 224 223 222 225 227 229 231 232 235 239 239 242 248 250 250 247 246 257 264 271 264 281 270 280 259 249
303 265 217 210 216 218 218 217 218 218 216 215 217 221 225 228 229 229 228 231 230 229 230 232 236 240 243 244 247 248 249 248 254 259 265 265 262 269 269 258 262 261 248
295 273 268 261 242 232 227 224 222 221 216 217 221 228 231 231 230 230 232 234 235 239 243 243 243 245 243 244 243 245 251 253 257 262 265 264 262 258 251 262 264 264 242
314 315 292 284 265 245 240 236 232 229 223 222 230 227 228 231 233 233 233 233 237 240 241 242 244 244 247 252 255 257 260 264 266 266 268 272 265 261 253 262 252 260 244
315 314 315 316 302 275 259 242 236 226 230 233 231 227 227 228 228 228 228 233 236 239 241 244 244 247 249 254 258 260 261 261 263 267 268 273 269 263 254 254 245 241 235
320 310 307 300 299 299 284 267 240 232 235 237 234 230 226 226 225 224 228 228 230 234 239 242 243 248 251 257 262 265 266 265 263 265 263 261 259 253 253 248 235 224 213
325 314 307 300 291 288 289 268 252 236 232 233 231 229 226 223 221 223 226 227 226 229 234 242 247 252 258 262 265 268 265 258 260 261 257 254 251 246 238 226 215 210 204
335 331 323 312 301 296 286 278 265 239 232 229 225 225 221 221 217 218 219 221 222 229 236 240 248 254 260 263 264 260 258 256 254 250 248 247 243 235 214 207 207 213 218
339 342 349 343 316 302 294 276 261 241 235 227 219 215 213 217 213 207 215 226 227 226 232 238 245 248 251 255 254 254 253 247 241 237 228 209 206 199 189 191 198 209 219
347 348 357 356 350 331 315 272 252 247 245 238 228 222 219 216 219 213 210 213 218 221 222 229 237 240 243 242 238 233 236 243 235 208 188 177 184 194 195 195 194 224 248
350 347 354 357 9 22 355 321 160 154 196 194 182 191 190 184 189 194 193 201 211 218 221 222 229 222 211 202 189 190 192 197 186 180 183 186 187 195 206 224 232 210 238
348 344 346 2 359 29 46 69 103 140 169 168 157 166 170 163 163 175 185 190 198 210 212 191 187 177 167 168 175 176 175 173 180 175 178 183 188 205 223 246 248 239 243
346 343 358 358 354 357 33 81 97 150 157 148 144 144 145 149 149 142 131 140 138 132 157 150 152 155 152 148 155 164 167 168 168 165 174 185 203 223 262 273 263 264 268
344 350 360 15 8 3 29 47 110 143 148 139 136 136 134 132 134 132 129 120 114 115 128 129 140 139 141 151 153 156 164 172 188 185 193 212 245 257 264 269 274 278 284
Wind_Speed_850mb
27 27 27 28 29 41 43 44 53 49 55 63 74 78 74 77 93 84 56 68 56 80 62 51 58 48 40 39 48 42 38 36 33 28 26 28 29 32 31 30 30 29 29
34 32 32 31 32 33 39 44 45 52 57 58 65 75 83 83 90 85 73 65 66 73 73 65 60 58 41 46 46 46 35 32 43 27 23 20 24 37 39 39 38 37 34
44 41 39 37 32 32 41 37 43 44 54 48 54 78 84 81 87 84 90 79 78 75 74 70 65 64 57 53 50 45 41 33 40 39 22 17 24 17 23 38 40 43 43
46 43 43 40 37 33 30 31 41 48 53 64 65 74 91 98 100 93 93 93 87 69 68 73 68 66 61 55 52 48 44 46 35 45 48 38 24 19 15 19 30 34 37
48 48 47 42 37 34 33 34 38 50 59 60 66 70 83 92 92 96 98 78 99 88 75 76 74 70 62 51 46 41 41 45 45 37 27 40 41 52 51 42 33 45 43
46 47 43 41 40 38 37 39 49 52 60 64 67 72 81 89 93 101 98 93 93 85 79 87 81 73 60 59 66 56 44 54 51 44 41 37 35 37 45 57 64 62 39
42 50 53 52 48 48 45 41 52 56 58 69 72 71 84 84 91 112 105 97 89 95 93 96 87 80 73 72 62 70 66 59 52 48 45 46 48 43 59 65 60 60 62
35 52 56 54 54 53 51 49 51 55 62 75 76 73 75 74 89 104 107 103 95 96 97 95 97 102 101 87 83 81 71 62 63 64 61 52 55 60 66 66 55 64 76
36 49 58 58 56 58 60 55 53 54 56 68 79 79 75 68 77 95 112 99 93 101 104 99 98 98 96 87 81 92 87 71 72 72 73 66 65 66 67 62 57 70 50
31 41 55 60 57 57 58 59 57 56 56 59 65 68 73 69 68 76 97 99 96 101 105 105 107 106 103 106 99 99 87 84 81 76 72 71 80 75 79 78 76 89 76
24 35 44 51 54 53 56 62 65 62 61 63 64 66 69 71 70 74 85 89 95 90 95 83 92 90 87 83 82 86 82 80 83 81 77 81 86 89 106 93 93 93 73
8 27 33 42 51 58 59 64 65 67 67 64 65 68 68 70 76 81 80 88 89 105 108 100 100 99 96 97 93 93 92 89 87 77 73 80 85 87 73 87 81 90 81
1 15 27 36 42 50 57 63 69 74 69 68 68 70 74 77 82 86 89 82 86 90 87 90 110 118 122 125 120 115 109 105 95 90 89 96 87 75 79 63 60 85 77
20 12 18 26 33 42 50 57 61 66 67 69 72 76 81 83 84 81 82 87 86 80 82 86 98 110 107 112 113 112 109 103 101 101 97 100 114 124 94 73 82 87 77
27 25 27 25 25 35 42 49 53 58 64 69 73 88 88 83 79 80 80 81 84 89 85 90 93 99 103 91 90 86 95 102 102 105 106 105 103 99 85 80 83 99 91
36 37 27 26 30 36 41 47 55 58 59 67 73 70 74 81 85 80 81 80 83 82 81 83 85 84 87 96 98 98 100 103 101 99 90 87 90 93 85 90 98 115 92
49 41 38 29 29 32 40 46 51 48 58 62 63 64 66 69 71 71 69 74 77 75 78 81 79 84 80 85 95 97 97 93 91 89 85 88 85 82 91 88 80 75 71
45 49 48 46 40 31 32 38 41 50 56 60 61 61 63 64 61 61 64 61 60 61 59 62 65 74 77 76 79 77 75 72 79 83 85 95 82 79 83 79 80 71 59
45 42 44 46 52 51 44 37 39 49 53 57 57 56 58 58 58 60 58 55 53 50 54 52 52 59 58 59 62 61 77 82 80 81 82 76 75 74 72 64 55 47 50
46 43 43 43 42 42 42 40 37 34 46 45 45 46 50 55 55 51 50 48 45 46 47 42 48 54 59 60 63 66 65 66 71 72 72 68 59 59 50 47 50 43 42
50 46 40 38 40 43 37 33 29 24 29 37 34 37 38 40 43 49 54 48 42 43 46 46 52 56 56 57 60 61 58 58 63 65 61 46 46 53 53 43 35 29 26
54 48 39 42 40 35 23 13 22 24 28 32 31 37 41 42 42 39 39 40 41 43 43 41 43 42 41 40 38 30 31 38 42 42 38 44 43 43 34 31 24 16 9
46 45 38 34 31 28 15 4 5 5 11 17 26 30 37 41 39 37 35 33 32 35 36 33 35 33 31 30 23 18 18 21 32 36 41 40 35 27 23 17 9 6 13
39 42 39 31 27 25 19 11 7 9 16 23 28 32 32 34 33 28 25 26 21 20 23 22 25 26 26 24 22 24 26 31 31 33 31 25 21 16 10 7 7 14 21
34 35 30 30 24 25 18 15 8 9 18 22 26 27 24 23 25 24 20 17 27 23 18 26 29 27 26 26 22 21 25 25 22 19 15 10 9 8 6 9 17 24 28
33 26 24 19 16 18 17 15 12 16 21 27 29 28 29 29 31 33 35 31 32 34 25 22 16 23 17 22 19 15 15 15 13 12 10 7 6 7 13 18 21 22 21
Wind_Direction_850mb
205 199 198 195 197 207 213 218 217 208 209 202 193 194 189 185 184 183 183 178 187 198 194 197 195 187 189 191 197 195 197 196 191 187 204 215 224 230 233 234 236 227 233
205 201 200 200 200 203 210 217 214 217 213 213 201 198 194 194 196 189 189 190 198 200 202 199 199 198 196 198 203 202 197 200 204 198 209 218 235 242 239 242 235 232 232
205 203 203 201 202 204 209 205 213 213 213 215 211 202 195 197 197 198 194 197 208 208 209 205 204 207 207 207 211 214 216 208 218 208 214 222 238 224 234 236 230 241 245
209 203 202 203 203 203 203 202 205 204 213 206 214 202 201 202 203 199 199 202 211 211 215 211 210 212 213 211 214 222 231 229 232 232 227 229 225 224 237 227 236 242 250
211 200 202 203 202 199 201 196 200 205 209 213 213 210 208 208 204 204 205 214 215 218 220 218 217 216 215 211 217 229 241 240 234 237 245 246 252 254 249 246 252 263 261
206 200 200 199 201 198 198 198 197 202 204 208 211 216 211 208 204 207 209 213 216 226 219 214 221 220 217 224 233 236 242 246 246 241 241 238 248 258 255 258 263 263 252
200 194 195 197 198 199 198 202 198 204 205 205 210 212 209 212 214 208 208 212 219 220 216 213 214 220 227 233 246 243 240 243 246 251 247 254 262 257 269 268 271 269 260
202 199 196 199 199 200 200 202 201 202 207 205 209 209 209 212 219 212 212 214 219 222 217 217 219 224 232 245 244 235 239 247 257 263 261 259 265 269 270 266 259 257 268
209 201 194 198 202 203 206 207 203 200 204 207 206 210 213 213 214 215 217 218 220 222 219 222 221 224 232 234 240 237 242 249 257 259 263 259 266 275 269 262 251 262 232
199 200 198 197 201 207 207 210 208 205 204 203 206 208 210 213 212 214 217 217 222 220 223 229 229 231 235 235 238 241 245 251 255 257 253 250 261 272 270 266 255 256 245
206 198 199 202 200 205 207 210 209 206 207 207 207 207 209 211 213 216 217 219 220 221 222 226 227 230 232 235 237 241 247 250 255 254 250 249 263 273 277 268 261 257 246
193 197 195 198 202 205 209 212 212 211 211 211 211 212 212 212 215 218 218 220 221 223 224 230 230 232 236 238 240 244 247 250 251 248 247 263 271 274 271 270 267 252 244
265 179 190 202 208 211 211 213 217 218 215 212 215 217 218 218 222 224 223 222 225 227 229 231 232 235 239 239 242 248 250 250 247 246 257 264 271 264 281 270 280 259 249
303 265 217 210 216 218 218 217 218 218 216 215 217 221 225 228 229 229 228 231 230 229 230 232 236 240 243 244 247 248 249 248 254 259 265 265 262 269 269 258 262 261 248
295 273 268 261 242 232 227 224 222 221 216 217 221 228 231 231 230 230 232 234 235 239 243 243 243 245 243 244 243 245 251 253 257 262 265 264 262 258 251 262 264 264 242
314 315 292 284 265 245 240 236 232 229 223 222 230 227 228 231 233 233 233 233 237 240 241 242 244 244 247 252 255 257 260 264 266 266 268 272 265 261 253 262 252 260 244
315 314 315 316 302 275 259 242 236 226 230 233 231 227 227 228 228 228 228 233 236 239 241 244 244 247 249 254 258 260 261 261 263 267 268 273 269 263 254 254 245 241 235
320 310 307 300 299 299 284 267 240 232 235 237 234 230 226 226 225 224 228 228 230 234 239 242 243 248 251 257 262 265 266 265 263 265 263 261 259 253 253 248 235 224 213
325 314 307 300 291 288 289 268 252 236 232 233 231 229 226 223 221 223 226 227 226 229 234 242 247 252 258 262 265 268 265 258 260 261 257 254 251 246 238 226 215 210 204
335 331 323 312 301 296 286 278 265 239 232 229 225 225 221 221 217 218 219 221 222 229 236 240 248 254 260 263 264 260 258 256 254 250 248 247 243 235 214 207 207 213 218
339 342 349 343 316 302 294 276 261 241 235 227 219 215 213 217 213 207 215 226 227 226 232 238 245 248 251 255 254 254 253 247 241 237 228 209 206 199 189 191 198 209 219
347 348 357 356 350 331 315 272 252 247 245 238 228 222 219 216 219 213 210 213 218 221 222 229 237 240 243 242 238 233 236 243 235 208 188 177 184 194 195 195 194 224 248
350 347 354 357 9 22 355 321 160 154 196 194 182 191 190 184 189 194 193 201 211 218 221 222 229 222 211 202 189 190 192 197 186 180 183 186 187 195 206 224 232 210 238
348 344 346 2 359 29 46 69 103 140 169 168 157 166 170 163 163 175 185 190 198 210 212 191 187 177 167 168 175 176 175 173 180 175 178 183 188 205 223 246 248 239 243
346 343 358 358 354 357 33 81 97 150 157 148 144 144 145 149 149 142 131 140 138 132 157 150 152 155 152 148 155 164 167 168 168 165 174 185 203 223 262 273 263 264 268
344 350 360 15 8 3 29 47 110 143 148 139 136 136 134 132 134 132 129 120 114 115 128 129 140 139 141 151 153 156 164 172 188 185 193 212 245 257 264 269 274 278 284